This demonstration page uses our WeatherBlox Daily Observations layout. Learn more.

40.92945, -100.16068

Hourly Observations for August 11, 2017

Temp ( °F °C ) Dew Point ( °F °C ) Humidity (%) Winds ( mph kmh ) Pressure ( in mb ) Visibility ( mi km ) Precip ( " mm )
12:15 am 00:15 Partly Cloudy 61 16 56 13.3 84 84 Calm 30.15 1021 10 16.09344 0 0
12:35 am 00:35 Mostly Cloudy 60 15.5 56 13.2 86 86 Calm 30.15 1021 10 16.09344 0 0
12:55 am 00:55 Cloudy 60 15.8 57 13.7 87 87 Calm 30.15 1021 10 16.09344 0 0
1:15 am 01:15 Cloudy 61 15.9 57 13.8 87 87 Calm 30.18 1022 10 16.09344 0 0
1:35 am 01:35 Cloudy 61 16 57 14.1 89 89 WNW 3 6 30.18 1022 10 16.09344 0 0
1:55 am 01:55 Cloudy 60 15.5 57 14 91 91 WNW 3 6 30.18 1022 10 16.09344 0 0
2:15 am 02:15 Partly Cloudy 59 15 56 13.6 91 91 WNW 6 9 30.15 1021 10 16.09344 0 0
2:35 am 02:35 Mostly Cloudy 58 14.6 56 13.2 91 91 NW 6 9 30.18 1022 10 16.09344 0 0
2:55 am 02:55 Partly Cloudy 58 14.2 55 13 93 93 NW 6 9 30.18 1022 10 16.09344 0 0
3:15 am 03:15 Clear 57 14 55 12.7 92 92 NNW 6 9 30.18 1022 10 16.09344 0 0
3:35 am 03:35 Clear 56 13.3 54 12.1 93 93 NNW 5 7 30.18 1022 10 16.09344 0 0
3:55 am 03:55 Clear 55 12.6 53 11.5 93 93 Calm 30.18 1022 10 16.09344 0 0
4:15 am 04:15 Clear 55 12.6 53 11.6 94 94 W 5 7 30.18 1022 10 16.09344 0 0
4:35 am 04:35 Clear 54 12.1 52 11.1 94 94 W 6 9 30.18 1022 10 16.09344 0 0
4:55 am 04:55 Clear 53 11.7 51 10.7 94 94 W 6 9 30.18 1022 7 11.265408 0 0
5:15 am 05:15 Clear 54 12 52 11 94 94 W 6 9 30.18 1022 10 16.09344 0 0
5:35 am 05:35 Clear 53 11.6 51 10.7 94 94 W 3 6 30.21 1023 10 16.09344 0 0
5:55 am 05:55 Clear 53 11.5 51 10.6 94 94 W 3 6 30.21 1023 7 11.265408 0 0
6:15 am 06:15 Clear 53 11.6 52 10.9 96 96 W 5 7 30.21 1023 7 11.265408 0 0
6:35 am 06:35 Clear 53 11.5 51 10.5 94 94 Calm 30.21 1023 7 11.265408 0 0
6:55 am 06:55 Sunny with Mist and Fog 52 11.1 51 10.3 95 95 WNW 3 6 30.24 1024 4 6.437376 0 0
7:15 am 07:15 Sunny with Mist and Fog 52 11 50 10.2 95 95 NW 5 7 30.24 1024 4 6.437376 0 0
7:35 am 07:35 Sunny with Mist and Fog 53 11.8 52 11 95 95 NNW 5 7 30.24 1024 5 8.04672 0 0
7:55 am 07:55 Sunny 55 12.7 53 11.9 95 95 NW 5 7 30.21 1023 7 11.265408 0 0
8:15 am 08:15 Sunny 56 13.6 55 12.6 94 94 NW 3 6 30.21 1023 10 16.09344 0 0
8:35 am 08:35 Sunny 58 14.5 56 13.1 91 91 NW 5 7 30.21 1023 10 16.09344 0 0
8:55 am 08:55 Sunny 60 15.6 56 13.3 86 86 WNW 3 6 30.18 1022 10 16.09344 0 0
9:15 am 09:15 Sunny 62 16.6 57 13.7 83 83 WNW 3 6 30.18 1022 10 16.09344 0 0
9:35 am 09:35 Sunny 64 17.5 58 14.2 81 81 NNW 3 6 30.18 1022 10 16.09344 0 0
9:55 am 09:55 Sunny 65 18.6 58 14.4 77 77 Calm 30.15 1021 10 16.09344 0 0
10:15 am 10:15 Sunny 67 19.5 58 14.4 73 73 Calm 30.15 1021 10 16.09344 0 0
10:35 am 10:35 Sunny 69 20.5 57 14.1 67 67 Calm 30.15 1021 10 16.09344 0 0
10:55 am 10:55 Sunny 71 21.5 54 12.4 56 56 SE 3 6 30.15 1021 10 16.09344 0 0
11:15 am 11:15 Sunny 71 21.7 56 13.3 59 59 NNE 3 6 30.15 1021 10 16.09344 0 0
11:35 am 11:35 Sunny 71 21.9 54 12.3 55 55 Calm 30.15 1021 10 16.09344 0 0
11:55 am 11:55 Partly Cloudy 73 22.7 54 12.3 52 52 W 3 6 30.12 1020 10 16.09344 0 0
12:15 pm 12:15 Sunny 73 22.7 53 11.4 49 49 Calm 30.12 1020 10 16.09344 0 0
12:35 pm 12:35 Sunny 74 23.2 54 12 49 49 Calm 30.09 1019 10 16.09344 0 0
12:55 pm 12:55 Sunny 74 23.5 54 12 49 49 Calm 30.09 1019 10 16.09344 0 0
1:35 pm 13:35 Sunny 75 24 53 11.8 46 46 Calm 30.09 1019 10 16.09344 0 0
1:55 pm 13:55 Sunny 76 24.4 54 12.2 47 47 WNW 3 6 30.09 1019 10 16.09344 0 0
2:15 pm 14:15 Sunny 75 24 50 9.9 41 41 Calm 30.09 1019 10 16.09344 0 0
2:35 pm 14:35 Sunny 76 24.2 50 10.1 41 41 Calm 30.06 1018 10 16.09344 0 0
2:55 pm 14:55 Sunny 76 24.7 52 10.9 42 42 N 3 6 30.06 1018 10 16.09344 0 0
3:15 pm 15:15 Sunny 76 24.7 49 9.7 39 39 NW 5 7 30.06 1018 10 16.09344 0 0
3:35 pm 15:35 Sunny 77 25.1 51 10.3 39 39 W 6 9 30.03 1017 10 16.09344 0 0
3:55 pm 15:55 Sunny 78 25.4 51 10.5 39 39 Calm 30 1016 10 16.09344 0 0
4:15 pm 16:15 Sunny 78 25.5 50 10.1 38 38 Calm 30 1016 10 16.09344 0 0
4:35 pm 16:35 Sunny 78 25.6 50 9.9 37 37 WSW 3 6 30 1016 10 16.09344 0 0
4:55 pm 16:55 Sunny 78 25.7 49 9.4 36 36 SSE 3 6 29.97 1015 10 16.09344 0 0
5:15 pm 17:15 Sunny 78 25.8 50 9.9 37 37 WSW 3 6 29.97 1015 10 16.09344 0 0
5:35 pm 17:35 Sunny 78 25.7 49 9.2 35 35 Calm 29.97 1015 10 16.09344 0 0
5:55 pm 17:55 Sunny 78 25.7 49 9.3 36 36 Calm 29.97 1015 10 16.09344 0 0
6:15 pm 18:15 Sunny 78 25.8 49 9.4 36 36 Calm 29.97 1015 10 16.09344 0 0
6:35 pm 18:35 Sunny 79 26.1 50 9.9 36 36 SSW 3 6 29.97 1015 10 16.09344 0 0
6:55 pm 18:55 Sunny 78 25.8 51 10.6 39 39 SSE 5 7 29.97 1015 10 16.09344 0 0
7:15 pm 19:15 Sunny 77 25.2 52 11.2 42 42 SSE 6 9 29.97 1015 10 16.09344 0 0
7:35 pm 19:35 Sunny 77 25 54 12.3 45 45 S 6 9 29.97 1015 10 16.09344 0 0
7:55 pm 19:55 Sunny 74 23.6 59 14.8 58 58 S 6 9 30 1016 10 16.09344 0 0
8:15 pm 20:15 Sunny 72 22.4 58 14.7 62 62 SSE 9 15 30 1016 10 16.09344 0 0
8:35 pm 20:35 Sunny 70 21.1 58 14.7 67 67 SE 7 11 30 1016 10 16.09344 0 0
8:55 pm 20:55 Clear 70 21.1 58 14.5 66 66 SE 7 11 30 1016 10 16.09344 0 0
9:15 pm 21:15 Clear 69 20.7 58 14.3 67 67 SE 7 11 30.03 1017 10 16.09344 0 0
9:35 pm 21:35 Clear 68 20.1 57 14.1 69 69 SE 7 11 30.03 1017 10 16.09344 0 0
9:55 pm 21:55 Clear 68 20 57 13.7 67 67 SE 6 9 30.03 1017 10 16.09344 0 0
10:15 pm 22:15 Clear 67 19.7 57 13.9 69 69 SE 7 11 30.03 1017 10 16.09344 0 0
10:35 pm 22:35 Clear 65 18.1 57 13.7 76 76 SE 6 9 30.06 1018 10 16.09344 0 0
10:55 pm 22:55 Clear 63 17.1 56 13.6 80 80 SE 5 7 30.06 1018 10 16.09344 0 0
11:15 pm 23:15 Clear 64 17.6 56 13.5 77 77 SE 7 11 30.03 1017 10 16.09344 0 0
11:35 pm 23:35 Clear 63 17.3 56 13.5 79 79 SSE 3 6 30.06 1018 10 16.09344 0 0
11:55 pm 23:55 Clear 64 17.5 56 13.6 78 78 Calm 30.03 1017 10 16.09344 0 0

Powered by AerisWeather